Regional Weather Roundup
Issued by NWS

Home | Current Version | Previous Version | Graphics & Text | Print | Product List | Glossary Off
Versions: 1 2 3 4 5 6 7 8 9 10 11 12 13 14 15 16 17 18 19 20 21 22 23 24 25 26 27 28 29 30 31 32 33 34 35 36 37 38 39 40 41 42 43 44 45 46 47 48 49 50

000
ASUS43 KMKX 282211
RWRWI

WISCONSIN REGIONAL WEATHER ROUNDUP
NATIONAL WEATHER SERVICE MILWAUKEE/SULLIVAN WI
500 PM CDT THU JUL 28 2016

NOTE: "FAIR" INDICATES FEW OR NO CLOUDS BELOW 12,000 FEET WITH NO
SIGNIFICANT WEATHER AND/OR OBSTRUCTIONS TO VISIBILITY.

WIZ001-002-006>008-014>016-023>028-282300-
NORTHWEST WISCONSIN

CITY           SKY/WX    TMP DP  RH WIND       PRES   REMARKS
SUPERIOR ARPT  CLOUDY    66  60  80 E10       30.08S
ASHLAND        CLOUDY    69  54  58 NE17      30.08F
HAYWARD        MOSUNNY   71  55  56 NE13G25   30.05S
SIREN          NOT AVBL
CUMBERLAND     PTSUNNY   72  55  56 NE9       30.03S
RICE LAKE      CLOUDY    72  57  60 NE9       30.03S
CHETEK         CLOUDY    74  58  57 MISG      30.02R
LADYSMITH      PTSUNNY   74  59  58 N8        30.03S
EAU CLAIRE     CLOUDY    68  60  75 E5        30.00R
MENOMONIE      CLOUDY    71  69  94 E7        30.00F
NEW RICHMOND   CLOUDY    75  56  51 N14G20    30.02S
OSCEOLA        PTSUNNY   72  58  61 N8        30.04F
$$

WIZ003>005-009-010-017-018-282300-
NORTH CENTRAL WISCONSIN

CITY           SKY/WX    TMP DP  RH WIND       PRES   REMARKS
MANITOWISH WTR CLOUDY    69  56  63 NE8       30.05S
ARBOR VITAE    CLOUDY    72  60  64 N8G16     30.04S
WOODRUFF       CLOUDY    72  60  64 N8G16     30.04S
RHINELANDER    CLOUDY    72  56  57 VRB7      30.04S
EAGLE RIVER    CLOUDY    72  53  51 NE8G17    30.04R
LAND O LAKES   CLOUDY    70  54  55 N10G20    30.06S
PHILLIPS       PTSUNNY   71  58  63 NE9       30.02F
TOMAHAWK       CLOUDY    70  56  61 NE6       30.03R
MEDFORD        CLOUDY    67  64  91 E5        30.01S
MERRILL        CLOUDY    67  63  85 CALM      30.02S
$$

WIZ029-030-035-036-043>047-282300-
CENTRAL WISCONSIN

CITY           SKY/WX    TMP DP  RH WIND       PRES   REMARKS
WAUSAU         CLOUDY    65  59  81 W3        30.00S
MOSINEE        CLOUDY    64  59  82 NE7       30.01S
MARSHFIELD     CLOUDY    63  59  87 NE8       30.00R
STEVENS POINT  CLOUDY    65  56  74 NE8       30.00R
WAUPACA        CLOUDY    71  64  79 NE7       29.99R
WAUTOMA        CLOUDY    69  65  86 NE8       29.97R
WISC RAPIDS    CLOUDY    69  61  75 NE10      29.99S
CAMP DOUGLAS   CLOUDY    69  64  85 NE8       29.96R
$$

WIZ011>013-019>022-031-037>040-048>050-282300-
NORTHEAST WISCONSIN

CITY           SKY/WX    TMP DP  RH WIND       PRES   REMARKS
ANTIGO         CLOUDY    68  62  80 NE5       30.02S
SHAWANO        CLOUDY    72  62  72 E7        29.99S
OCONTO         CLOUDY    65  65 100 CALM      29.99S
STURGEON BAY   CLOUDY    69  61  75 E3        30.00S
GREEN BAY      PTSUNNY   68  65  90 NE14      29.98S
MANITOWOC      CLOUDY    66  59  78 N10       29.97S
APPLETON       CLOUDY    68  59  73 NE14      29.97R
CLINTONVILLE   CLOUDY    66  59  77 E8        29.99S
OSHKOSH        CLOUDY    70  63  78 NE15      29.96R
$$

WIZ032>034-041-042-053>061-282300-
SOUTHWEST WISCONSIN

CITY           SKY/WX    TMP DP  RH WIND       PRES   REMARKS
LA CROSSE      CLOUDY    67  63  87 N8        29.96S
SPARTA         CLOUDY    65  63  92 N8        29.97S
VIROQUA        CLOUDY    67  67 100 NE7       29.96R
BOSCOBEL       CLOUDY    76  69  79 NE9       29.91R
PRAIRIE DU CHI CLOUDY    72  65  80 N14       29.92R
PLATTEVILLE    PTSUNNY   77  71  81 N14       29.90S
$$

WIZ056-057-062-063-064-067-068-282300-
SOUTH CENTRAL WISCONSIN

CITY           SKY/WX    TMP DP  RH WIND       PRES   REMARKS
REEDSBURG      CLOUDY    72  66  83 NE7       29.94S
BARABOO/DELLS  CLOUDY    71  64  78 NE9       29.94F
LONE ROCK      CLOUDY    75  68  78 NE12      29.92R
MINERAL POINT  PTSUNNY   75  72  88 NE8       29.91S
MADISON        CLOUDY    76  68  76 NE14      29.91S
MIDDLETON      CLOUDY    76  68  78 NE10      29.92S
WATERTOWN      CLOUDY    73  68  84 E9        29.92F HAZE
MONROE         CLOUDY    75  66  73 E8        29.90F
JANESVILLE     MOSUNNY   75  66  73 E7        29.90R
$$

WIZ051-052-058>065-066-070>072-282300-
SOUTHEAST WISCONSIN

CITY           SKY/WX    TMP DP  RH WIND       PRES   REMARKS
MILWAUKEE      CLOUDY    67  62  84 N14       29.93S
WAUKESHA       CLOUDY    68  63  83 NE9       29.95S
MILWAUKEE/TIMM CLOUDY    68  59  73 NE10G17   29.95S
RACINE         LGT RAIN  68  64  87 N12       29.94F
BURLINGTON     LGT RAIN  67  65  93 NW8       29.93R
KENOSHA        LGT RAIN  68  64  87 CALM      29.91F
FOND DU LAC    CLOUDY    73  64  73 NE12      29.95S
SHEBOYGAN      PTSUNNY   68  61  78 NE16      29.96S
WEST BEND      CLOUDY    68  61  77 E13       29.96S
JUNEAU         CLOUDY    71  63  75 NE9       29.95S
$$

LSZ147-162-282300-
LAKE SUPERIOR

STATION/POSITION TIME  TEMP    WIND        PRES    WAVE
                       AIR SEA DIR/SP/G            HT/PER
                 (UTC) (F)     (DEG/KT/KT) (MB)    (FT/S)
W MID LAKE BUOY  2150   62 61   90/ 10/ 12 1018.3F   2/ 5
DEVILS ISLAND    2200   64      80/ 12/ 13 1018.7F
PORT WING        2040   61      30/ 11/ 13 1019.0S
SAXON HARBOR     2100   68      40/ 17/ 20 1018.3
$$

LMZ867-665-643>646-282300-
LAKE MICHIGAN

STATION/POSITION TIME  TEMP    WIND        PRES    WAVE
                       AIR SEA DIR/SP/G            HT/PER
                 (UTC) (F)     (DEG/KT/KT) (MB)    (FT/S)
CHAMBERS ISLAND  2100   71      40/  6/  8 1015.6F
N MID LAKE BUOY  2150   70 71   30/  6/  8 1014.6F   0
NORTHPORT PIER   2100   71      80/  7/  8 1015.2F
SISTER BAY       2121   75      20/  6/ 11   N/A
ALGOMA LAKESHORE 2113           30/  7/  9   N/A
KEWAUNEE LAKESHO 2100   64      20/  6/ 11 1015.0R
SHEBOYGAN LAKESH 2200   60     360/ 12/ 13 1014.7F
PORT WASHINGTON  2100   68      30/ 11/ 18 1014.6
ATWATER BUOY     2200   63 63   10/ 16/ 17 1015.2R
MILWAUKEE LAKESH 2110   65      10/ 17/ 21   N/A
S MID LAKE BUOY  2150   75 77   10/ 12/ 14 1012.3R   2/ 6
KENOSHA   LAKESH 2200   67      20/ 18/ 20 1012.2F
$$

TC  - TEMPERATURE IN CELSIUS
VSB - VISIBILITY IN STATUTE MILES
WCI - WIND CHILL INDEX
HX  - HEAT INDEX





USA.gov is the U.S. government's official web portal to all federal, state and local government web resources and services.